This is the latest recevied weather packets stored in our database for station/object K4PAD. If no packets are shown the sender has not sent any weather packets the latest 10 day(s).
| Time | Temp. | Humidity | Pressure | Rain* | Wind** | Luminosity | Snow |
|---|---|---|---|---|---|---|---|
| 1777873053 | 13.33° C | 93% | 1020.1 hPa | 0 mm | - | 0 W/m² | - |
| 1777872749 | 12.78° C | 93% | 1020.1 hPa | 0 mm | - | 0 W/m² | - |
| 1777872446 | 13.33° C | 93% | 1020.1 hPa | 0 mm | - | 0 W/m² | - |
| 1777872145 | 13.33° C | 92% | 1020.1 hPa | 0 mm | - | 0 W/m² | - |
| 1777871841 | 13.33° C | 92% | 1020.3 hPa | 0 mm | - | 0 W/m² | - |
| 1777871538 | 13.33° C | 92% | 1020.1 hPa | 0 mm | - | 0 W/m² | - |
| 1777871235 | 13.33° C | 92% | 1020.1 hPa | 0 mm | - | 0 W/m² | - |
| 1777870927 | 13.33° C | 92% | 1020.1 hPa | 0 mm | - | 0 W/m² | - |
| 1777870624 | 13.33° C | 91% | 1020 hPa | 0 mm | - | 0 W/m² | - |
| 1777870323 | 13.33° C | 91% | 1020.2 hPa | 0 mm | - | 0 W/m² | - |
| 1777870021 | 13.33° C | 91% | 1020.1 hPa | 0 mm | - | 0 W/m² | - |
| 1777869718 | 13.33° C | 91% | 1020.4 hPa | 0 mm | - | 0 W/m² | - |
| 1777869415 | 13.89° C | 91% | 1020.2 hPa | 0 mm | - | 0 W/m² | - |
| 1777869112 | 13.89° C | 91% | 1020.1 hPa | 0 mm | - | 0 W/m² | - |
| 1777868810 | 13.89° C | 91% | 1020.3 hPa | 0 mm | - | 0 W/m² | - |
| 1777868506 | 13.33° C | 90% | 1020.3 hPa | 0 mm | - | 0 W/m² | - |
| 1777868202 | 13.89° C | 90% | 1020.1 hPa | 0 mm | - | 0 W/m² | - |
| 1777867898 | 13.89° C | 90% | 1020.1 hPa | 0 mm | - | 0 W/m² | - |
| 1777867595 | 13.89° C | 89% | 1020.2 hPa | 0 mm | - | 0 W/m² | - |
| 1777867292 | 13.89° C | 89% | 1020.1 hPa | 0 mm | - | 0 W/m² | - |
| 1777866989 | 13.89° C | 89% | 1020.3 hPa | 0 mm | - | 0 W/m² | - |
| 1777866685 | 14.44° C | 89% | 1020.2 hPa | 0 mm | - | 0 W/m² | - |
| 1777866384 | 14.44° C | 89% | 1020.2 hPa | 0 mm | - | 0 W/m² | - |
| 1777866080 | 14.44° C | 89% | 1020.3 hPa | 0 mm | - | 0 W/m² | - |
| 1777865778 | 13.89° C | 88% | 1020.2 hPa | 0 mm | - | 0 W/m² | - |
* Rain latest hour (hover to see other rain measurements)
** Current wind speed in m/s (hover to see current wind gust speed)